GW7188 Weather Reports


time (UTC)temp
C
wind
direction
speed
KPH
gust
KPH
rain 1hr
cm
rain 24hr
cm
rain mn
cm
humidity
%
barometer
mb
20260507145329 15 266 6.4 9.7 0.00 0.00 0.00 61 1017.0
20260507144830 15 287 3.2 8.0 0.00 0.00 0.00 63 1017.0
20260507144330 15 212 6.4 9.7 0.00 0.00 0.00 63 1017.1
20260507143830 15 279 3.2 9.7 0.00 0.00 0.00 63 1017.1
20260507143330 14 220 3.2 6.4 0.00 0.00 0.00 64 1017.0
20260507142829 14 212 4.8 9.7 0.00 0.00 0.00 64 1017.1
20260507142330 14 239 1.6 4.8 0.00 0.00 0.00 66 1017.2
20260507141829 13 243 8.0 16.1 0.00 0.00 0.00 65 1017.2
20260507141330 13 206 0.0 3.2 0.00 0.00 0.00 67 1017.2
20260507140830 13 204 3.2 8.0 0.00 0.00 0.00 66 1017.2
20260507140332 13 219 3.2 6.4 0.00 0.00 0.00 68 1017.3
20260507135842 13 242 4.8 9.7 0.00 0.00 0.00 68 1017.2
20260507135329 12 256 4.8 8.0 0.00 0.00 0.00 69 1017.3
20260507134832 12 259 8.0 14.5 0.00 0.00 0.00 70 1017.2
20260507134334 12 242 0.0 4.8 0.00 0.00 0.00 73 1017.3
20260507133830 12 232 3.2 6.4 0.00 0.00 0.00 73 1017.3
20260507133329 11 226 0.0 3.2 0.00 0.00 0.00 74 1017.4
20260507132830 11 217 3.2 6.4 0.00 0.00 0.00 76 1017.4
20260507132330 11 212 3.2 6.4 0.00 0.00 0.00 74 1017.3
20260507131829 11 216 3.2 4.8 0.00 0.00 0.00 75 1017.3
20260507131330 10 313 0.0 3.2 0.00 0.00 0.00 77 1017.3
20260507130830 10 164 0.0 1.6 0.00 0.00 0.00 78 1017.3
20260507130330 9 212 1.6 4.8 0.00 0.00 0.00 79 1017.4
20260507125830 8 222 0.0 0.0 0.00 0.00 0.00 81 1017.4
20260507125330 8 271 1.6 3.2 0.00 0.00 0.00 82 1017.4
20260507124830 7 215 1.6 3.2 0.00 0.00 0.00 83 1017.4
20260507124330 7 210 1.6 3.2 0.00 0.00 0.00 85 1017.4
20260507123829 6 212 0.0 1.6 0.00 0.00 0.00 88 1017.4
20260507123330 6 0 0.0 0.0 0.00 0.00 0.00 89 1017.4
20260507122830 5 0 0.0 0.0 0.00 0.00 0.00 93 1017.4
20260507122330 5 0 0.0 0.0 0.00 0.00 0.00 94 1017.4
20260507121830 5 0 0.0 0.0 0.00 0.00 0.00 96 1017.4
20260507121330 5 0 0.0 0.0 0.00 0.00 0.00 96 1017.4
20260507120829 4 205 0.0 0.0 0.00 0.00 0.00 97 1017.4
20260507120329 4 0 0.0 0.0 0.00 0.00 0.00 96 1017.3
20260507115829 4 0 0.0 0.0 0.00 0.00 0.00 96 1017.2
20260507115331 4 0 0.0 0.0 0.00 0.00 0.00 96 1017.2
20260507114830 4 0 0.0 0.0 0.00 0.00 0.00 96 1017.2
20260507114329 3 0 0.0 0.0 0.00 0.00 0.00 96 1017.2
20260507113830 3 0 0.0 0.0 0.00 0.00 0.00 96 1017.1
20260507113329 3 0 0.0 0.0 0.00 0.00 0.00 96 1017.1
20260507112829 3 0 0.0 0.0 0.00 0.00 0.00 96 1017.0
20260507112329 3 0 0.0 0.0 0.00 0.00 0.00 96 1017.0
20260507111829 3 0 0.0 0.0 0.00 0.00 0.00 95 1017.0
20260507111330 3 0 0.0 0.0 0.00 0.00 0.00 95 1017.0
20260507110829 4 0 0.0 0.0 0.00 0.00 0.00 95 1017.0
20260507110332 4 0 0.0 0.0 0.00 0.00 0.00 94 1017.0
20260507105830 3 0 0.0 0.0 0.00 0.00 0.00 95 1017.0
20260507105330 3 0 0.0 0.0 0.00 0.00 0.00 95 1017.0
20260507104829 4 0 0.0 0.0 0.00 0.00 0.00 95 1017.0
20260507104330 4 0 0.0 0.0 0.00 0.00 0.00 94 1017.0
20260507103829 4 0 0.0 0.0 0.00 0.00 0.00 94 1016.9
20260507103329 4 0 0.0 0.0 0.00 0.00 0.00 94 1017.0
20260507102829 3 0 0.0 0.0 0.00 0.00 0.00 95 1017.0
20260507102329 4 0 0.0 0.0 0.00 0.00 0.00 95 1017.0
20260507101830 4 0 0.0 0.0 0.00 0.00 0.00 94 1017.0
20260507101330 4 0 0.0 0.0 0.00 0.00 0.00 94 1016.9
20260507100830 4 0 0.0 0.0 0.00 0.00 0.00 93 1017.0
20260507100330 5 0 0.0 0.0 0.00 0.00 0.00 93 1017.0
20260507095829 5 0 0.0 0.0 0.00 0.00 0.00 92 1017.0
20260507095330 5 0 0.0 0.0 0.00 0.00 0.00 90 1017.1
20260507094829 5 0 0.0 0.0 0.00 0.00 0.00 90 1017.1
20260507094330 5 0 0.0 0.0 0.00 0.00 0.00 91 1017.2
20260507093830 5 0 0.0 0.0 0.00 0.00 0.00 90 1017.2
20260507093329 5 0 0.0 0.0 0.00 0.00 0.00 90 1017.3
20260507092830 5 0 0.0 0.0 0.00 0.00 0.00 91 1017.3
20260507092330 5 0 0.0 0.0 0.00 0.00 0.00 90 1017.3
20260507091829 5 0 0.0 0.0 0.00 0.00 0.00 89 1017.3
20260507091330 5 0 0.0 0.0 0.00 0.00 0.00 88 1017.3
20260507090829 5 0 0.0 0.0 0.00 0.00 0.00 86 1017.3
20260507090330 5 0 0.0 0.0 0.00 0.00 0.00 86 1017.3
20260507085830 5 0 0.0 0.0 0.00 0.00 0.00 85 1017.3
20260507085330 5 215 0.0 1.6 0.00 0.00 0.00 87 1017.3
20260507084830 5 0 0.0 0.0 0.00 0.00 0.00 88 1017.3
20260507084330 5 0 0.0 0.0 0.00 0.00 0.00 88 1017.2
20260507083829 6 0 0.0 0.0 0.00 0.00 0.00 87 1017.3
20260507083330 6 0 0.0 0.0 0.00 0.00 0.00 85 1017.3
20260507082831 6 230 0.0 3.2 0.00 0.00 0.00 86 1017.4
20260507082330 6 0 0.0 0.0 0.00 0.00 0.00 86 1017.4
20260507081830 6 234 0.0 3.2 0.00 0.00 0.00 85 1017.4
20260507081329 6 218 0.0 3.2 0.00 0.00 0.00 85 1017.4
20260507080830 6 264 0.0 3.2 0.00 0.00 0.00 84 1017.4
20260507080329 6 241 0.0 1.6 0.00 0.00 0.00 84 1017.3
20260507075830 6 227 0.0 0.0 0.00 0.00 0.00 85 1017.3
20260507075330 6 237 1.6 4.8 0.00 0.00 0.00 85 1017.3
20260507074829 6 240 0.0 1.6 0.00 0.00 0.00 85 1017.3
20260507074329 6 0 0.0 0.0 0.00 0.00 0.00 86 1017.3
20260507073829 6 227 0.0 1.6 0.00 0.00 0.00 86 1017.3
20260507073329 6 298 0.0 1.6 0.00 0.00 0.00 87 1017.4
20260507072829 6 0 0.0 0.0 0.00 0.00 0.00 85 1017.3
20260507072329 6 0 0.0 0.0 0.00 0.00 0.00 87 1017.4
20260507071829 6 0 0.0 0.0 0.00 0.00 0.00 86 1017.5
20260507071329 6 0 0.0 0.0 0.00 0.00 0.00 86 1017.5
20260507070833 6 0 0.0 0.0 0.00 0.00 0.00 86 1017.6
20260507070329 6 0 0.0 0.0 0.00 0.00 0.00 86 1017.7
20260507065829 6 0 0.0 0.0 0.00 0.00 0.00 86 1017.7
20260507065330 6 0 0.0 0.0 0.00 0.00 0.00 86 1017.8
20260507064829 6 0 0.0 0.0 0.00 0.00 0.00 85 1017.9
20260507064332 6 0 0.0 0.0 0.00 0.00 0.00 85 1017.8
20260507063830 6 0 0.0 0.0 0.00 0.00 0.00 84 1017.9
20260507063330 6 0 0.0 0.0 0.00 0.00 0.00 83 1017.9
20260507062829 7 0 0.0 0.0 0.00 0.00 0.00 84 1018.1
20260507062330 7 0 0.0 0.0 0.00 0.00 0.00 82 1018.1
20260507061829 7 0 0.0 0.0 0.00 0.00 0.00 81 1017.9
20260507061331 7 0 0.0 0.0 0.00 0.00 0.00 81 1018.1
20260507060829 6 0 0.0 0.0 0.00 0.00 0.00 79 1018.1
20260507060330 6 0 0.0 0.0 0.00 0.00 0.00 79 1017.9
20260507055829 7 0 0.0 0.0 0.00 0.00 0.00 80 1017.9
20260507055330 7 0 0.0 0.0 0.00 0.00 0.00 79 1017.9
20260507054830 7 0 0.0 0.0 0.00 0.00 0.00 81 1018.1
20260507054329 6 0 0.0 0.0 0.00 0.00 0.00 78 1018.1
20260507053831 6 0 0.0 0.0 0.00 0.00 0.00 79 1018.1
20260507053330 6 0 0.0 0.0 0.00 0.00 0.00 82 1018.2
20260507052829 6 0 0.0 0.0 0.00 0.00 0.00 81 1018.2
20260507052330 6 0 0.0 0.0 0.00 0.00 0.00 83 1018.1
20260507051830 6 0 0.0 0.0 0.00 0.00 0.00 80 1018.1
20260507051329 6 0 0.0 0.0 0.00 0.00 0.00 79 1017.9
20260507050830 6 0 0.0 0.0 0.00 0.00 0.00 78 1018.1
20260507050330 7 0 0.0 0.0 0.00 0.00 0.00 78 1018.1
20260507045830 7 227 0.0 1.6 0.00 0.00 0.25 78 1018.1
20260507045329 7 0 0.0 0.0 0.00 0.00 0.25 78 1018.1
20260507044830 7 0 0.0 0.0 0.00 0.00 0.25 77 1018.1
20260507044329 8 0 0.0 0.0 0.00 0.00 0.25 74 1018.2
20260507043829 8 244 0.0 1.6 0.00 0.00 0.25 70 1018.3
20260507043331 8 244 0.0 3.2 0.00 0.00 0.25 71 1018.3
20260507042830 8 265 0.0 3.2 0.00 0.00 0.25 73 1018.2
20260507042329 8 0 0.0 0.0 0.00 0.00 0.25 72 1017.9
20260507041830 8 0 0.0 0.0 0.00 0.00 0.25 69 1017.9
20260507041329 8 0 0.0 0.0 0.00 0.00 0.25 69 1018.1
20260507040829 8 0 0.0 0.0 0.00 0.00 0.25 68 1018.3
20260507040329 8 244 0.0 1.6 0.00 0.00 0.25 66 1018.4
20260507035829 8 234 0.0 3.2 0.00 0.00 0.25 68 1018.4
20260507035329 8 0 0.0 0.0 0.00 0.00 0.25 69 1018.4
20260507034830 8 0 0.0 0.0 0.00 0.00 0.25 67 1018.4
20260507034330 7 207 0.0 0.0 0.00 0.00 0.25 68 1018.4
20260507033830 7 205 0.0 3.2 0.00 0.00 0.25 72 1018.3
20260507033330 7 0 0.0 0.0 0.00 0.00 0.25 71 1018.2
20260507032830 7 0 0.0 0.0 0.00 0.00 0.25 73 1018.2
20260507032329 7 0 0.0 0.0 0.00 0.00 0.25 66 1018.2
20260507031833 7 0 0.0 0.0 0.00 0.00 0.25 64 1018.2
20260507031330 7 0 0.0 0.0 0.00 0.00 0.25 64 1018.2
20260507030830 8 0 0.0 0.0 0.00 0.00 0.25 64 1018.1
20260507030329 8 0 0.0 0.0 0.00 0.00 0.25 68 1018.2
20260507025832 8 0 0.0 0.0 0.00 0.00 0.25 66 1018.2
20260507025330 8 0 0.0 0.0 0.00 0.00 0.25 62 1018.1
20260507024829 9 0 0.0 0.0 0.00 0.00 0.25 61 1017.9
20260507024330 9 0 0.0 0.0 0.00 0.00 0.25 58 1017.9
20260507023829 9 0 0.0 0.0 0.00 0.00 0.25 57 1017.9
20260507023329 9 0 0.0 0.0 0.00 0.00 0.25 62 1017.9
20260507022829 10 0 0.0 0.0 0.00 0.00 0.25 59 1017.8
20260507022330 10 0 0.0 0.0 0.00 0.00 0.25 59 1017.7
20260507021829 10 0 0.0 0.0 0.00 0.00 0.25 56 1017.8
20260507021330 10 0 0.0 0.0 0.00 0.00 0.25 57 1017.8
20260507020830 10 0 0.0 0.0 0.00 0.00 0.25 57 1017.7
20260507020329 10 0 0.0 0.0 0.00 0.00 0.25 53 1017.6
20260507015829 10 0 0.0 0.0 0.00 0.00 0.25 53 1017.6
20260507015330 10 0 0.0 0.0 0.00 0.00 0.25 54 1017.5
20260507014830 11 0 0.0 0.0 0.00 0.00 0.25 55 1017.5
20260507014330 11 0 0.0 0.0 0.00 0.00 0.25 54 1017.5
20260507013830 11 0 0.0 0.0 0.00 0.00 0.25 55 1017.4
20260507013330 11 0 0.0 0.0 0.00 0.00 0.25 55 1017.5
20260507012829 11 233 0.0 1.6 0.00 0.00 0.25 52 1017.4
20260507012332 12 222 0.0 3.2 0.00 0.00 0.25 52 1017.4
20260507011829 12 0 0.0 0.0 0.00 0.00 0.25 51 1017.3
20260507011329 12 0 0.0 0.0 0.00 0.00 0.25 48 1017.2
20260507010830 13 0 0.0 0.0 0.00 0.00 0.25 45 1017.2
20260507010329 13 0 0.0 0.0 0.00 0.00 0.25 44 1017.2
20260507005829 13 4 0.0 3.2 0.00 0.00 0.25 43 1017.1
20260507005329 13 24 0.0 1.6 0.00 0.00 0.25 42 1017.2
20260507004830 14 357 3.2 8.0 0.00 0.00 0.25 41 1017.1
20260507004330 14 14 6.4 8.0 0.00 0.00 0.25 41 1017.2
20260507003829 14 14 6.4 8.0 0.00 0.00 0.25 40 1017.1
20260507003329 14 17 4.8 9.7 0.00 0.00 0.25 40 1017.1
20260507002829 14 7 4.8 6.4 0.00 0.00 0.25 40 1017.1
20260507002329 15 19 6.4 11.3 0.00 0.00 0.25 39 1017.1
20260507001830 15 15 3.2 6.4 0.00 0.00 0.25 40 1017.1
20260507001329 15 30 1.6 4.8 0.00 0.00 0.25 40 1017.1
20260507000829 15 293 3.2 6.4 0.00 0.00 0.25 40 1017.0
20260507000329 15 87 1.6 3.2 0.00 0.00 0.25 39 1017.0
20260506235829 15 15 8.0 16.1 0.00 0.00 0.25 39 1017.0
20260506235330 15 21 3.2 8.0 0.00 0.00 0.25 39 1017.0
20260506234829 15 265 3.2 8.0 0.00 0.00 0.25 40 1017.0
20260506234329 15 21 1.6 3.2 0.00 0.00 0.25 40 1017.2
20260506233830 15 17 3.2 6.4 0.00 0.00 0.25 39 1017.1
20260506233329 16 12 4.8 9.7 0.00 0.00 0.25 39 1017.1
20260506232829 16 28 0.0 6.4 0.00 0.00 0.25 39 1017.1
20260506232329 16 12 3.2 9.7 0.00 0.00 0.25 39 1017.1
20260506231830 16 355 3.2 6.4 0.00 0.00 0.25 38 1017.0
20260506231330 16 14 3.2 9.7 0.00 0.00 0.25 38 1017.1
20260506230838 16 89 1.6 3.2 0.00 0.00 0.25 39 1017.0
20260506230332 16 281 0.0 3.2 0.00 0.00 0.25 39 1017.0
20260506225830 16 347 1.6 8.0 0.00 0.00 0.25 39 1017.0
20260506225331 16 45 3.2 4.8 0.00 0.00 0.25 40 1017.0
20260506224829 15 11 3.2 8.0 0.00 0.00 0.25 39 1017.1
20260506224329 16 14 8.0 14.5 0.00 0.00 0.25 39 1017.0
20260506223830 16 357 4.8 12.9 0.00 0.00 0.25 39 1017.1
20260506223329 16 329 6.4 9.7 0.00 0.00 0.25 40 1017.0
20260506222830 16 307 1.6 4.8 0.00 0.00 0.25 40 1017.0
20260506222330 16 21 3.2 9.7 0.00 0.00 0.25 39 1017.1
20260506221829 16 359 3.2 9.7 0.00 0.00 0.25 39 1017.2
20260506221330 15 63 3.2 4.8 0.00 0.00 0.25 40 1017.2
20260506220830 15 14 4.8 9.7 0.00 0.00 0.25 40 1017.2
20260506220329 16 11 3.2 6.4 0.00 0.00 0.25 41 1017.2
20260506215830 16 14 6.4 12.9 0.00 0.00 0.25 41 1017.3
20260506215329 16 85 1.6 4.8 0.00 0.00 0.25 42 1017.2
20260506214831 16 25 4.8 11.3 0.00 0.00 0.25 40 1017.4
20260506214329 15 26 3.2 6.4 0.00 0.00 0.25 40 1017.4
20260506213830 15 19 4.8 8.0 0.00 0.00 0.25 40 1017.5
20260506213331 15 19 8.0 11.3 0.00 0.00 0.25 42 1017.5
20260506212829 15 28 4.8 9.7 0.00 0.00 0.25 42 1017.6
20260506212330 15 30 4.8 8.0 0.00 0.00 0.25 40 1017.6
20260506211830 15 22 9.7 14.5 0.00 0.00 0.25 39 1017.6
20260506211330 16 29 9.7 14.5 0.00 0.00 0.25 40 1017.6
20260506210830 16 14 6.4 11.3 0.00 0.00 0.25 42 1017.6
20260506210330 15 257 3.2 4.8 0.00 0.00 0.25 42 1017.8
20260506205830 15 11 4.8 8.0 0.00 0.00 0.25 41 1017.8
20260506205329 16 12 3.2 11.3 0.00 0.00 0.25 41 1018.1
20260506204829 16 358 3.2 8.0 0.00 0.00 0.25 40 1018.1
20260506204330 16 279 1.6 4.8 0.00 0.00 0.25 42 1018.1
20260506203830 16 24 3.2 8.0 0.00 0.00 0.25 40 1018.2
20260506203330 16 21 8.0 12.9 0.00 0.00 0.25 38 1018.1
20260506202829 16 20 8.0 14.5 0.00 0.00 0.25 39 1018.3
20260506202329 16 15 4.8 9.7 0.00 0.00 0.25 40 1018.3
20260506201829 16 311 3.2 6.4 0.00 0.00 0.25 40 1018.3
20260506201330 16 320 3.2 6.4 0.00 0.00 0.25 41 1018.3
20260506200829 15 103 1.6 4.8 0.00 0.00 0.25 42 1018.3
20260506200329 15 252 3.2 8.0 0.00 0.00 0.25 41 1018.5
20260506195830 15 1 4.8 9.7 0.00 0.00 0.25 40 1018.5
20260506195329 15 24 4.8 12.9 0.00 0.00 0.25 41 1018.5
20260506194830 15 208 1.6 4.8 0.00 0.00 0.25 43 1018.5
20260506194330 15 33 6.4 11.3 0.00 0.00 0.25 41 1018.6
20260506193830 15 11 4.8 8.0 0.00 0.00 0.25 42 1018.6
20260506193329 15 291 1.6 4.8 0.00 0.00 0.25 45 1018.7
20260506192829 15 28 11.3 14.5 0.00 0.00 0.25 43 1018.7
20260506192330 15 30 0.0 3.2 0.00 0.00 0.25 42 1018.7
20260506191829 15 21 6.4 9.7 0.00 0.00 0.25 42 1018.8
20260506191330 15 110 1.6 6.4 0.00 0.00 0.25 44 1018.8
20260506190829 15 25 8.0 12.9 0.00 0.00 0.25 42 1018.8
20260506190329 15 293 3.2 8.0 0.00 0.00 0.25 44 1018.8
20260506185832 15 16 3.2 6.4 0.00 0.00 0.25 47 1018.8
20260506185329 15 20 4.8 9.7 0.00 0.00 0.25 42 1018.8
20260506184829 15 8 3.2 6.4 0.00 0.00 0.25 43 1018.9
20260506184330 15 25 11.3 17.7 0.00 0.00 0.25 41 1018.9
20260506183834 14 21 6.4 12.9 0.00 0.00 0.25 41 1018.9
20260506183330 14 13 6.4 11.3 0.00 0.00 0.25 42 1018.9
20260506182830 14 13 4.8 8.0 0.00 0.00 0.25 43 1019.0
20260506182331 13 247 1.6 4.8 0.00 0.00 0.25 43 1019.1
20260506181829 13 34 9.7 14.5 0.00 0.00 0.25 43 1019.0
20260506181330 13 16 3.2 9.7 0.00 0.00 0.25 46 1019.1
20260506180830 13 29 4.8 11.3 0.00 0.00 0.25 43 1019.0
20260506180329 13 39 3.2 6.4 0.00 0.00 0.25 45 1019.1
20260506175829 13 39 4.8 9.7 0.00 0.00 0.25 42 1019.2
20260506175334 13 0 0.0 0.0 0.00 0.00 0.25 43 1019.3
20260506174829 13 24 6.4 11.3 0.00 0.00 0.25 42 1019.3
20260506174329 13 35 0.0 3.2 0.00 0.00 0.25 44 1019.3
20260506173830 13 15 4.8 11.3 0.00 0.00 0.25 44 1019.4
20260506173330 13 29 8.0 14.5 0.00 0.00 0.25 42 1019.5
20260506172830 13 19 0.0 4.8 0.00 0.00 0.25 45 1019.5
20260506172329 13 12 3.2 12.9 0.00 0.00 0.25 45 1019.5
20260506171830 14 14 3.2 8.0 0.00 0.00 0.25 43 1019.6
20260506171330 14 282 1.6 4.8 0.00 0.00 0.25 44 1019.5
20260506170830 14 20 4.8 9.7 0.00 0.00 0.25 44 1019.5
20260506170331 14 2 3.2 8.0 0.00 0.00 0.25 44 1019.5
20260506165829 13 321 3.2 6.4 0.00 0.00 0.25 44 1019.4
20260506165330 13 8 6.4 12.9 0.00 0.00 0.25 44 1019.3
20260506164830 13 17 3.2 8.0 0.00 0.00 0.25 47 1019.2
20260506164330 13 25 6.4 11.3 0.00 0.00 0.25 44 1019.2
20260506163830 13 26 9.7 12.9 0.00 0.00 0.25 46 1019.3
20260506163330 13 18 6.4 14.5 0.00 0.00 0.25 45 1019.3
20260506162829 13 347 3.2 9.7 0.00 0.00 0.25 43 1019.2
20260506162331 13 8 3.2 9.7 0.00 0.00 0.25 42 1019.1
20260506161831 13 345 4.8 11.3 0.00 0.00 0.25 43 1019.0
20260506161330 13 23 11.3 17.7 0.00 0.00 0.25 43 1018.8
20260506160830 13 29 8.0 14.5 0.00 0.00 0.25 44 1018.8
20260506160330 14 23 9.7 16.1 0.00 0.00 0.25 45 1018.8
20260506155830 13 19 3.2 6.4 0.00 0.00 0.25 48 1018.8
20260506155329 13 21 6.4 9.7 0.00 0.00 0.25 47 1018.8
20260506154830 13 8 8.0 11.3 0.00 0.00 0.25 46 1018.9
20260506154332 13 7 8.0 12.9 0.00 0.00 0.25 45 1018.9
20260506153830 13 33 0.0 4.8 0.00 0.00 0.25 49 1018.7
20260506153329 13 26 6.4 12.9 0.00 0.00 0.25 47 1018.7
20260506152830 13 41 6.4 12.9 0.00 0.00 0.25 48 1018.7
20260506152329 13 18 1.6 4.8 0.00 0.00 0.25 53 1018.7
20260506151830 13 353 1.6 4.8 0.00 0.00 0.25 51 1018.7
20260506151330 13 3 4.8 14.5 0.00 0.00 0.25 52 1018.7
20260506150830 13 23 6.4 11.3 0.00 0.00 0.25 54 1018.6
20260506150331 12 24 4.8 9.7 0.00 0.00 0.25 53 1018.6
20260506145831 12 274 3.2 8.0 0.00 0.00 0.25 53 1018.6